[[{"header":{"parameterUnit":"m.s-1","parameterCategory":1,"la1":30.2991,"la2":30.254,"lo1":-89.0895,"lo2":-89.0444,"dy":0.0017,"dx":0.0017,"nx":28,"ny":28,"refTime":"2024-05-30T03:00:00:Z","depth":0,"parameterNumber":2,"parameterNumberName":"U-component_of_WINDS"},"data":[0,0,0,0,0,0,0,0,0,0,0,0,0,0,0,0,0,0,0,0,0,0,0,0,0,0,0,0,0,0,0,0,0,0,0,0,0,0,0,0,0,0,0,0,0,0,0,0,0,0,0,0,0,0,0,0,0,0,-1.2289,-1.2284,0,-1.1825,-1.182,-1.1814,-1.1546,-1.1545,-1.1544,-1.1543,-1.1064,-1.1052,-1.1041,0,0,0,0,0,0,0,0,0,0,0,0,0,-1.2942,-1.2932,-1.229,-1.2284,-1.2278,-1.1826,-1.1819,-1.1813,-1.1546,-1.1545,-1.1544,-1.1543,-1.1068,-1.1054,-1.104,0,0,0,0,0,0,0,0,0,0,0,0,0,-1.2587,-1.2928,-1.2291,-1.2091,-1.2068,-1.1827,-1.1819,-1.1811,-1.1546,-1.1545,-1.1543,-1.1542,-1.1072,-1.1055,-1.1038,-1.0959,0,0,-1.0983,-1.0976,0,0,0,0,0,0,0,0,-1.2607,-1.2563,-1.2126,-1.2104,-1.2078,-1.1742,-1.1873,-1.1525,-1.1547,-1.1744,-1.1543,-1.1541,-1.129,-1.1255,-1.1171,-1.0936,-1.0916,-1.0982,-1.0971,-1.0964,-1.0959,0,0,0,0,0,0,0,-1.2632,-1.2581,-1.2105,-1.212,-1.2091,-1.2023,-1.1971,-1.1806,-1.1531,-1.1727,-1.1706,-1.1655,-1.1277,-1.1189,-1.1158,-1.0909,-1.0982,-1.0967,-1.0956,-1.0949,-1.0586,-1.0586,0,0,0,0,0,0,-1.2689,-1.2604,-1.212,-1.2092,-1.2345,-1.2012,-1.1954,-1.1851,-1.1533,-1.1483,-1.1657,-1.1645,-1.122,-1.1179,-1.114,-1.1025,-1.0964,-1.0947,-1.0937,-1.0585,-1.0586,-1.0587,0,0,0,0,0,0,-1.2704,-1.2649,-1.2139,-1.2342,-1.2272,-1.2003,-1.189,-1.1843,-1.1754,-1.148,-1.1429,-1.1617,-1.1217,-1.1165,-1.1006,-1.1005,-1.0939,-1.0923,-1.0583,-1.0585,-1.0586,-1.0799,0,0,0,0,0,0,-1.2724,-1.2656,-1.2624,-1.2343,-1.2262,-1.2015,-1.189,-1.1835,-1.1725,-1.1704,-1.1429,-1.1382,-1.1211,-1.1034,-1.0988,-1.098,-1.0909,-1.0582,-1.0584,-1.0586,-1.079,-1.0807,-1.0822,0,0,0,0,0,-1.2749,-1.2701,-1.2624,-1.2567,-1.2217,-1.2015,-1.1968,-1.1774,-1.1726,-1.1691,-1.1515,-1.1391,-1.1014,-1.102,-1.0966,-1.0953,-1.0581,-1.0584,-1.0586,-1.0783,-1.0804,-1.0821,0,0,0,0,0,0,-1.2987,-1.2661,-1.2571,-1.2432,-1.2254,-1.197,-1.192,-1.1802,-1.1633,-1.162,-1.1386,-1.1326,-1.119,-1.1054,-1.1068,-1.0859,-1.0784,-1.0775,-1.0952,-1.0969,-1.0985,-1.102,-1.0894,0,0,0,0,0,-1.3024,-1.2889,-1.261,-1.2514,-1.243,-1.2192,-1.2096,-1.1962,-1.1768,-1.169,-1.1502,-1.1317,-1.1156,-1.1055,-1.0892,-1.077,-1.0706,-1.0734,-1.075,-1.0764,-1.0759,-1.0684,-1.0693,-1.0594,-1.0594,-1.0594,0,0,-1.3098,-1.2903,-1.2831,-1.2557,-1.2403,-1.2268,-1.2129,-1.1991,-1.1888,-1.1668,-1.1507,-1.1364,-1.1141,-1.1001,-1.0929,-1.0884,-1.0773,-1.0767,-1.078,-1.0767,-1.0687,-1.0697,-1.0706,-1.0596,-1.0595,-1.0595,0,0,-1.3163,-1.3002,-1.2904,-1.2754,-1.2523,-1.2365,-1.2342,-1.2076,-1.1973,-1.1808,-1.1641,-1.1514,-1.1242,-1.1091,-1.0978,-1.0988,-1.0868,-1.0942,-1.1023,-1.0952,-1.096,-1.0966,-1.0969,-1.0973,-1.0938,-1.0939,-1.0939,0,-1.3283,-1.3073,-1.2869,-1.2741,-1.2625,-1.2422,-1.2321,-1.2184,-1.1912,-1.1836,-1.179,-1.1445,-1.1281,-1.1102,-1.1105,-1.1021,-1.0987,-1.0971,-1.0976,-1.0979,-1.0982,-1.0982,-1.0984,-1.0949,-1.0948,-1.0947,-1.0946,0,-1.3232,-1.3089,-1.3038,-1.2782,-1.266,-1.2547,-1.2325,-1.2226,-1.2104,-1.1951,-1.1785,-1.1582,-1.1374,-1.1322,-1.12,-1.1126,-1.1105,-1.1021,-1.094,-1.1005,-1.1001,-1.1,-1.0964,-1.096,-1.0957,-1.0955,0,0,-1.3433,-1.3067,-1.3052,-1.2933,-1.2664,-1.2549,-1.2427,-1.2225,-1.2145,-1.1964,-1.1855,-1.163,-1.1551,-1.1424,-1.1283,-1.1222,-1.1243,-1.1144,-1.1135,-1.1169,-1.1147,-1.1213,-1.1216,-1.1162,-1.1161,-1.116,-1.1166,0,-1.3458,-1.3229,-1.3043,-1.2882,-1.2747,-1.2554,-1.2446,-1.227,-1.2124,-1.1987,-1.1825,-1.167,-1.1577,-1.1499,-1.143,-1.1255,-1.1235,-1.1252,-1.1056,-1.1052,-1.1118,-1.1214,-1.1281,-1.1296,-1.1163,-1.1163,-1.1163,0,-1.3457,-1.3286,-1.3114,-1.2859,-1.2795,-1.2703,-1.2503,-1.2375,-1.2171,-1.2069,-1.1929,-1.1783,-1.1643,-1.1578,-1.1382,-1.1399,-1.1307,-1.121,-1.1205,-1.1179,-1.1111,-1.1189,-1.1296,-1.1299,-1.1158,-1.1159,-1.1159,0,-1.362,-1.3347,-1.3207,-1.3112,-1.2812,-1.2752,-1.2624,-1.2418,-1.2309,-1.2134,-1.2061,-1.1873,-1.177,-1.1627,-1.1434,-1.1404,-1.1258,-1.1177,-1.1169,-1.1174,-1.1146,-1.115,-1.124,-1.109,-1.109,-1.109,-1.109,0,-1.3667,-1.357,-1.3277,-1.3192,-1.3076,-1.2863,-1.2753,-1.2608,-1.2428,-1.231,-1.213,-1.2024,-1.1776,-1.1639,-1.1487,-1.1348,-1.1303,-1.1216,-1.1177,-1.1231,-1.1243,-1.1167,-1.1161,-1.109,-1.109,-1.109,-1.109,0,-1.383,-1.363,-1.3466,-1.3197,-1.3127,-1.3053,-1.2821,-1.2731,-1.2576,-1.243,-1.2383,-1.2139,-1.1969,-1.1763,-1.1525,-1.1423,-1.1299,-1.124,-1.1368,-1.1345,-1.1349,-1.1352,-1.1393,-1.1387,-1.1245,-1.1246,-1.1248,0,-1.3873,-1.3793,-1.3516,-1.3425,-1.3303,-1.3159,-1.3047,-1.2834,-1.2725,-1.2487,-1.2425,-1.2242,-1.2083,-1.1821,-1.1621,-1.1439,-1.1374,-1.1401,-1.1345,-1.1403,-1.1373,-1.1381,-1.1371,-1.1416,-1.1419,-1.1421,-1.1423,0,-1.397,-1.3876,-1.3722,-1.3535,-1.3408,-1.3249,-1.3083,-1.3019,-1.2772,-1.2658,-1.2483,-1.2361,-1.2119,-1.1939,-1.1732,-1.1598,-1.1469,-1.1442,-1.143,-1.1485,-1.1563,-1.152,-1.1408,-1.1442,-1.144,-1.1438,-1.1437,-1.1437,-1.4072,-1.3993,-1.3786,-1.3621,-1.3474,-1.3324,-1.3226,-1.3059,-1.291,-1.2698,-1.2581,-1.2409,-1.2206,-1.1915,-1.1786,-1.1648,-1.1601,-1.1585,-1.158,-1.158,-1.1596,-1.1587,-1.1609,-1.1608,-1.1608,-1.1607,-1.1606,0,-1.416,-1.4018,-1.3869,-1.3643,-1.3514,-1.3405,-1.3216,-1.3115,-1.2966,-1.2789,-1.2638,-1.2436,-1.2261,-1.205,-1.186,-1.179,-1.1726,-1.1748,-1.175,-1.1721,-1.1648,-1.1677,-1.1803,-1.1803,-1.1803,-1.1803,-1.1803,-1.1803,-1.419,-1.4049,-1.3931,-1.3716,-1.3573,-1.3404,-1.3306,-1.3165,-1.3023,-1.2807,-1.2661,-1.2525,-1.2333,-1.2129,-1.1963,-1.1905,-1.1844,-1.1883,-1.1808,-1.1743,-1.1726,-1.171,-1.1736,-1.1872,-1.1872,-1.1891,-1.1891,-1.1892]},{"header":{"parameterUnit":"m.s-1","parameterCategory":1,"la1":30.2991,"la2":30.254,"lo1":-89.0895,"lo2":-89.0444,"dy":0.0017,"dx":0.0017,"nx":28,"ny":28,"refTime":"2024-05-30T03:00:00:Z","depth":0,"parameterNumber":3,"parameterNumberName":"V-component_of_WINDS"},"data":[0,0,0,0,0,0,0,0,0,0,0,0,0,0,0,0,0,0,0,0,0,0,0,0,0,0,0,0,0,0,0,0,0,0,0,0,0,0,0,0,0,0,0,0,0,0,0,0,0,0,0,0,0,0,0,0,0,0,-3.3299,-3.33,0,-3.3311,-3.3311,-3.3311,-3.3254,-3.3252,-3.325,-3.3249,-3.3259,-3.3261,-3.3262,0,0,0,0,0,0,0,0,0,0,0,0,0,-3.3223,-3.3225,-3.3299,-3.33,-3.33,-3.3311,-3.3311,-3.3311,-3.3254,-3.3252,-3.325,-3.3248,-3.3258,-3.326,-3.3263,0,0,0,0,0,0,0,0,0,0,0,0,0,-3.3248,-3.3225,-3.3299,-3.3273,-3.327,-3.3311,-3.3311,-3.3311,-3.3255,-3.3252,-3.325,-3.3247,-3.3258,-3.326,-3.3263,-3.333,0,0,-3.3271,-3.3272,0,0,0,0,0,0,0,0,-3.3246,-3.325,-3.3276,-3.3274,-3.3272,-3.3278,-3.3288,-3.3317,-3.3255,-3.326,-3.3249,-3.3246,-3.3267,-3.3269,-3.3277,-3.333,-3.333,-3.3271,-3.3273,-3.3274,-3.3275,0,0,0,0,0,0,0,-3.3245,-3.325,-3.3304,-3.3277,-3.3274,-3.3258,-3.3259,-3.3293,-3.3278,-3.326,-3.3256,-3.3258,-3.3266,-3.3274,-3.3276,-3.3331,-3.3271,-3.3274,-3.3276,-3.3277,-3.3434,-3.3437,0,0,0,0,0,0,-3.3247,-3.3249,-3.3304,-3.3304,-3.3253,-3.3262,-3.3263,-3.3279,-3.3277,-3.3275,-3.326,-3.3255,-3.3271,-3.3273,-3.3277,-3.3351,-3.3274,-3.3277,-3.3278,-3.3432,-3.3435,-3.3438,0,0,0,0,0,0,-3.3246,-3.3252,-3.3303,-3.3275,-3.3281,-3.3266,-3.3284,-3.328,-3.3289,-3.3277,-3.3274,-3.3272,-3.3269,-3.3273,-3.3316,-3.3351,-3.3278,-3.3281,-3.3429,-3.3433,-3.3436,-3.3503,0,0,0,0,0,0,-3.3244,-3.3252,-3.3279,-3.3276,-3.3282,-3.3344,-3.3287,-3.3282,-3.3294,-3.3288,-3.3288,-3.3285,-3.3267,-3.3312,-3.3319,-3.3353,-3.3283,-3.3426,-3.3431,-3.3435,-3.3498,-3.3509,-3.3518,0,0,0,0,0,-3.3241,-3.3298,-3.328,-3.3287,-3.3315,-3.3346,-3.3349,-3.3328,-3.3297,-3.3322,-3.3314,-3.3285,-3.3346,-3.3317,-3.3324,-3.336,-3.3423,-3.3429,-3.3435,-3.3493,-3.3507,-3.3518,0,0,0,0,0,0,-3.3305,-3.3297,-3.3278,-3.3336,-3.3342,-3.3336,-3.3368,-3.3344,-3.3359,-3.3352,-3.3325,-3.3325,-3.3372,-3.337,-3.3338,-3.3422,-3.3379,-3.3387,-3.3421,-3.3434,-3.3444,-3.3442,-3.3285,0,0,0,0,0,-3.3326,-3.3353,-3.3344,-3.3396,-3.34,-3.3383,-3.3396,-3.3379,-3.3384,-3.3386,-3.3381,-3.3387,-3.3406,-3.342,-3.3439,-3.3498,-3.3495,-3.3525,-3.3536,-3.3544,-3.355,-3.3577,-3.359,-3.3457,-3.3457,-3.3457,0,0,-3.3369,-3.3368,-3.3387,-3.3408,-3.3411,-3.3437,-3.3386,-3.3417,-3.3435,-3.3391,-3.343,-3.3427,-3.3431,-3.3481,-3.3503,-3.3481,-3.3586,-3.3551,-3.3558,-3.356,-3.3585,-3.3597,-3.3608,-3.3461,-3.346,-3.3459,0,0,-3.3461,-3.3464,-3.3506,-3.3509,-3.3513,-3.3502,-3.3512,-3.3509,-3.3505,-3.3544,-3.351,-3.3531,-3.3567,-3.357,-3.3577,-3.3666,-3.3638,-3.3672,-3.3725,-3.3752,-3.3763,-3.3772,-3.38,-3.3811,-3.3679,-3.3679,-3.3679,0,-3.3514,-3.3553,-3.353,-3.3562,-3.3571,-3.3531,-3.3571,-3.3575,-3.3586,-3.3592,-3.3568,-3.3609,-3.361,-3.3658,-3.368,-3.3687,-3.3695,-3.3672,-3.3763,-3.3772,-3.378,-3.3807,-3.3818,-3.3683,-3.3683,-3.3682,-3.3682,0,-3.3616,-3.3643,-3.3676,-3.3686,-3.3698,-3.3735,-3.3715,-3.373,-3.3712,-3.3702,-3.374,-3.3739,-3.3754,-3.3765,-3.3748,-3.381,-3.3796,-3.3768,-3.3724,-3.3797,-3.3822,-3.3832,-3.3689,-3.3687,-3.3686,-3.3685,0,0,-3.3749,-3.3743,-3.3755,-3.3757,-3.3758,-3.3778,-3.3811,-3.3826,-3.3838,-3.3846,-3.3871,-3.3901,-3.3874,-3.3881,-3.3863,-3.3887,-3.3954,-3.3856,-3.3855,-3.3871,-3.4018,-3.4037,-3.405,-3.3936,-3.3938,-3.394,-3.4017,0,-3.3836,-3.3892,-3.387,-3.3927,-3.395,-3.3912,-3.394,-3.3942,-3.3933,-3.395,-3.394,-3.3961,-3.3926,-3.3929,-3.3951,-3.3941,-3.3982,-3.3935,-3.3956,-3.3958,-3.3954,-3.4063,-3.4084,-3.4157,-3.4027,-3.4028,-3.403,0,-3.3945,-3.3956,-3.4015,-3.4008,-3.4016,-3.4042,-3.4052,-3.407,-3.407,-3.4062,-3.4069,-3.4045,-3.4074,-3.4032,-3.407,-3.4039,-3.4046,-3.4042,-3.4045,-3.4044,-3.3996,-3.4063,-3.4181,-3.4191,-3.4045,-3.4044,-3.4043,0,-3.4031,-3.4061,-3.4099,-3.4102,-3.4096,-3.4114,-3.4113,-3.4111,-3.412,-3.4129,-3.4133,-3.4146,-3.4152,-3.4161,-3.414,-3.4112,-3.418,-3.4137,-3.4172,-3.4173,-3.4187,-3.4186,-3.4305,-3.4196,-3.4196,-3.4196,-3.4196,0,-3.4129,-3.4166,-3.4137,-3.416,-3.4199,-3.4173,-3.4212,-3.4206,-3.4204,-3.4224,-3.4193,-3.4212,-3.4184,-3.42,-3.4184,-3.4216,-3.422,-3.4213,-3.4207,-3.4214,-3.4214,-3.4217,-3.421,-3.4199,-3.4198,-3.4198,-3.4197,0,-3.4232,-3.4215,-3.4253,-3.4243,-3.4241,-3.427,-3.4261,-3.4281,-3.4269,-3.4294,-3.4299,-3.428,-3.4297,-3.4277,-3.4293,-3.4282,-3.4325,-3.4314,-3.4324,-3.432,-3.4355,-3.4351,-3.4477,-3.4491,-3.4377,-3.4378,-3.4379,0,-3.4294,-3.4321,-3.4313,-3.4324,-3.4324,-3.4342,-3.435,-3.4325,-3.4335,-3.4336,-3.4355,-3.4369,-3.4379,-3.4407,-3.4394,-3.4405,-3.4392,-3.4436,-3.4393,-3.4398,-3.4389,-3.4386,-3.4387,-3.4444,-3.4445,-3.4446,-3.4447,0,-3.4405,-3.4394,-3.4408,-3.4417,-3.4427,-3.4434,-3.4438,-3.4449,-3.4422,-3.4434,-3.4451,-3.4458,-3.4473,-3.4486,-3.4493,-3.4489,-3.4463,-3.4461,-3.4469,-3.4474,-3.4478,-3.4473,-3.4345,-3.4457,-3.4456,-3.4456,-3.4455,-3.4455,-3.4487,-3.4507,-3.4504,-3.4519,-3.4519,-3.4523,-3.454,-3.4529,-3.4542,-3.4552,-3.4537,-3.4556,-3.4553,-3.456,-3.4559,-3.4573,-3.4554,-3.4567,-3.4569,-3.4572,-3.4576,-3.4478,-3.4575,-3.4574,-3.4574,-3.4574,-3.4574,0,-3.4593,-3.4588,-3.4602,-3.4608,-3.4619,-3.4593,-3.4595,-3.4606,-3.4623,-3.4623,-3.4633,-3.465,-3.4662,-3.4649,-3.4659,-3.4672,-3.466,-3.4675,-3.4672,-3.4671,-3.4594,-3.4585,-3.4684,-3.4684,-3.4684,-3.4684,-3.4684,-3.4684,-3.4649,-3.4681,-3.467,-3.47,-3.4695,-3.4714,-3.4716,-3.4719,-3.4718,-3.4738,-3.4748,-3.474,-3.4734,-3.4742,-3.4751,-3.4747,-3.475,-3.4769,-3.4761,-3.4688,-3.4677,-3.4667,-3.4657,-3.4771,-3.4771,-3.4836,-3.4837,-3.4837]}]]